This is the latest recevied weather packets stored in our database for station/object KF6RAL-6. If no packets are shown the sender has not sent any weather packets the latest 10 day(s).
| Time | Temp. | Humidity | Pressure | Rain* | Wind** | Luminosity | Snow |
|---|---|---|---|---|---|---|---|
| 1777512980 | 14.44° C | 45% | 1016.9 hPa | 0 mm | - | - | - |
| 1777512559 | 14.44° C | 43% | 1017 hPa | 0 mm | - | - | - |
| 1777512138 | 14.44° C | 43% | 1017 hPa | 0 mm | - | - | - |
| 1777511717 | 15° C | 42% | 1017 hPa | 0 mm | - | - | - |
| 1777511296 | 15° C | 42% | 1017.2 hPa | 0 mm | - | - | - |
| 1777510875 | 15° C | 47% | 1017 hPa | 0 mm | - | - | - |
| 1777510454 | 15° C | 44% | 1016.9 hPa | 0 mm | - | - | - |
| 1777510034 | 15° C | 45% | 1016.7 hPa | 0 mm | - | - | - |
| 1777509612 | 15° C | 47% | 1016.8 hPa | 0 mm | - | - | - |
| 1777509192 | 15° C | 48% | 1016.9 hPa | 0 mm | - | - | - |
| 1777508770 | 15° C | 45% | 1016.9 hPa | 0 mm | - | - | - |
| 1777508349 | 15° C | 45% | 1016.9 hPa | 0 mm | - | - | - |
| 1777507928 | 15° C | 46% | 1016.9 hPa | 0 mm | - | - | - |
| 1777507086 | 15.56° C | 45% | 1017 hPa | 0 mm | - | - | - |
| 1777506244 | 15.56° C | 34% | 1017.2 hPa | 0 mm | - | - | - |
| 1777505823 | 15.56° C | 37% | 1017 hPa | 0 mm | - | - | - |
| 1777505402 | 15° C | 37% | 1017.3 hPa | 0 mm | - | - | - |
| 1777504981 | 15° C | 37% | 1017.3 hPa | 0 mm | - | - | - |
| 1777504560 | 15° C | 34% | 1017.4 hPa | 0 mm | - | - | - |
| 1777504139 | 15° C | 33% | 1017.4 hPa | 0 mm | - | - | - |
| 1777503718 | 15° C | 30% | 1016.6 hPa | 0 mm | - | - | - |
| 1777503297 | 15° C | 30% | 1017.4 hPa | 0 mm | - | - | - |
| 1777502876 | 15° C | 33% | 1017.1 hPa | 0 mm | - | - | - |
| 1777502034 | 15° C | 31% | 1017.3 hPa | 0 mm | - | - | - |
| 1777501613 | 15° C | 32% | 1017.3 hPa | 0 mm | - | - | - |
* Rain latest hour (hover to see other rain measurements)
** Current wind speed in m/s (hover to see current wind gust speed)